User: anonymous   Login
Location: Unspecified
(0.0000°N, 0.0000°E)
Time: 17:28:15
(UTC+00:00)
Language:

GOSAT - Orbit

View from above orbital plane
View from above orbital plane
View from above satellite
View from above satellite

Ground track
Ground track

The orbit data is extracted from the following two-line orbital elements,

1 33492U 09002A   17294.16443989 -.00000187  00000-0 -24444-4 0  9999
2 33492  98.1337  44.8231 0001187  84.9923 275.1413 14.67514293468304
Epoch (UTC): 21 October 2017 03:56:47
Eccentricity: 0.0001187
inclination: 98.1337°
perigee height: 668 km
apogee height: 670 km
right ascension of ascending node: 44.8231°
argument of perigee: 84.9923°
revolutions per day: 14.67514293
mean anomaly at epoch: 275.1413°
orbit number at epoch: 46830

The dashed part of the orbit path shows where the satellite is in the earth's shadow,  

DLR